Location: Flensburg
(54.6357°N, 9.5142°E)
Time: 19:24:55
(UTC+02:00)

ISS - Pass Details

Date: 05 January 2018
Orbit: 402 x 408 km, 51.6° (Epoch: 18 July)

Event Time Altitude Azimuth Distance (km) Brightness Sun altitude
Exits shadow 04:47:14 - 95° (E) 1,538 -0.1 -32.6°
Enters shadow 05:44:29 -67° 263° (W) 12,136 3.6 -24.4°
Maximum altitude 06:20:31 50° 176° (S) 542 -3.2 -19.2°
